Tracking 18630 objects as of 22-May-2017
HD Live streaming from Space Station
objects crossing your sky now

COSMOS 2440

Track COSMOS 2440 now!
COSMOS 2440 is classified as:


NORAD ID: 33108
Int'l Code: 2008-033A
Perigee: 35,775.5 km
Apogee: 35,807.2 km
Inclination: 4.6 °
Period: 1,436.0 minutes
Semi major axis: 42162 km
RCS: 10.0237 m2 (large)
Launch date: June 27, 2008
Source: Commonwealth of Independent States (former USSR) (CIS)
Launch site: TYURATAM MISSILE AND SPACE COMPLEX (TTMTR)

Cosmos 2440 is a Russian military, geostationary, early warning craft.
Your satellite tracking list
Your tracking list is empty





NASA's NSSDC Master Catalog

Two Line Element Set (TLE):
1 33108U 08033A   17141.85601455 -.00000057 +00000-0 +00000-0 0  9990
2 33108 004.6019 057.2971 0003749 195.7055 005.8269 01.00280325032582
Source of the keplerian elements: AFSPC